Showing default

LEMUR 2 THENICKMOLO, 43185

Orbit data source: Space-Track

LEMUR 2 THENICKMOLO, 43185 is a payload satellite owned by Spire (US) in SSO that was launched on Thu, 01 Feb 2018 UTC via a SOYUZ-2-1A launch vehicle from the Vostochny Cosmodrome (VOSTO). Payload-class satellites include a variety of spacecraft equipped with specific instruments for various scientific and technological missions. These include communications satellites like Starlink; space stations such as the ISS; scientific satellites like the Hubble; Earth observation satellites from companies like Planet Labs, Umbra, and HawkEye 360; GPS; miniature CubeSats for education and research; and military/defense satellites.

Loading next visibility...
Identifier
43185, 2018-014F
Orbit
SSO
Last TLE update
20 hours ago
Origin
Manufacturer
Spire/Glasgow
Mission
Operational Commercial Com/MetRO
Bus & Motor
CUBESAT 3U, Unknown motor
Mass
4.6 kg wet, 4.6 kg dry
Launch date (UTC)
2018-02-01 (7 years ago)
Launch vehicle
SOYUZ-2-1A
Launch site
Vostochny Cosmodrome (VOSTO)
Object type
Payload
Rocket body
Debris
Shape & HBR
Box + 2 Pan, 0.7 m
Radar Cross Section
0.124 m², Small (<0.1 m²)

Expand to show TLE details & history

TLE from 20 hours ago
0 LEMUR 2 THENICKMOLO
1 43185U 18014F   25183.02949738  .00079684  00000-0  10042-2 0  9999
2 43185  97.5626 101.6257 0006284  89.8995 270.2981 15.59331349406987
Epoch: 2025-07-02T00:42Z
TLE epoch observation values (Epoch: 2025-07-02T00:42:28.573Z)
Latitude
-0.00003°
Longitude
170.69019°
Altitude
392.711 km
Speed
7.675 km/s
True Right ascension
06h 46m 30s
True Declination
0° 00' 00"
Sunlit
Object was in daylight at epoch
Visualization orbit readout
Latitude
-75.20618°
Longitude
-158.44265°
Altitude
420.63 km
Speed
7.655 km/s
Apparent Right ascension
19h 45m 08s
Apparent Declination
-73° 13' 19"
Sunlit
Object is in daylight
Visualization observer readout
Local Sidereal Time
08:07:55
Azimuth
177.02° S
Elevation
-56.58°
Doppler factor
1
Orbital elements
Apogee altitude
390.762 km
Perigee altitude
382.261 km
Semi-major axis
6,764.649 km
Eccentricity
0.00063
Inclination
97.5626°
RAAN
101.6257°
Arg. of periapsis
89.8995°
True anomaly
Unknown
Mean anomaly
270.2981°
Eccentric anomaly
Unknown
Mean motion
3.90099 °/min
Orbital period
92.28 mins
BSTAR
0.0010042
Loading maneuver chart data...
Loading SW <> Apogee altitude chart data...
Loading historical data...
Loading historical data...
Loading historical data...
Loading historical data...
Loading historical data...
Loading historical data...
Loading historical data...

LEMUR 2 THENICKMOLO Visibility forecast

Observer location: undefined°, undefined°

Span
Click to sort rows by Start time (UTC) header in descending order
Start Az.
Max El. time (UTC)
Max El. Az.
Max El.
End time (UTC)
End Az.
4 mins2025-07-03 18:25:53.531Z146.456° SSE2025-07-03 18:27:53.531Z61.772° ENE38.169°2025-07-03 18:29:53.531Z1.732° NNE
|